Location: West Sayville
(40.7279°N, 73.0976°W)
Time: 06:06:47
(UTC+00:00)

Cosmos 44 - Pass Details

Date: 29 October 2020
Orbit: 577 x 784 km, 65.1° (Epoch: 27 November)

Event Time Altitude Azimuth Distance (km) Brightness Sun altitude
Rises 22:14:09 0° 226° (SW) 2,843 7.6 -4.9°
Reaches altitude 10° 22:16:24 10° 232° (SW) 1,968 6.9 -5.3°
Maximum altitude 22:20:42 48° 307° (NW) 840 4.1 -6.1°
Drops below altitude 10° 22:25:18 10° 22° (NNE) 2,100 5.5 -7.0°
Sets 22:27:46 0° 28° (NNE) 3,055 6.2 -7.4°
